Location: Newark
(27.9675°N, 86.8869°E)
Time: 08:54:21
(UTC+00:00)

Vanguard 3 - Visible Passes

Search period start: 20 October 2019 00:00
Search period end: 30 October 2019 00:00
Orbit: 508 x 3262 km, 33.3° (Epoch: 20 October)

Date Brightness Start Highest point End Pass type
(mag) Time Alt. Az. Time Alt. Az. Time Alt. Az.
20 Oct 8.4 21:33:33 42° E 21:33:33 42° E 21:38:47 10° ESE visible
20 Oct 8.7 23:38:08 11° W 23:43:51 41° SSW 23:53:51 10° SE visible
21 Oct 9.8 13:39:50 10° S 13:40:46 11° SSE 13:40:46 11° SSE visible
21 Oct 7.4 22:28:36 54° WSW 22:29:31 61° SSW 22:38:01 10° SE visible
22 Oct 9.9 14:34:56 10° SSW 14:35:53 13° SSW 14:35:53 13° SSW visible
22 Oct 9.1 21:19:04 26° ESE 21:19:04 26° ESE 21:22:13 10° ESE visible
22 Oct 8.8 23:23:39 15° W 23:27:52 32° SSW 23:36:10 10° SSE visible
23 Oct 9.3 13:20:56 10° SSW 13:26:18 18° SSE 13:26:23 18° SSE visible
23 Oct 7.8 22:14:08 46° S 22:14:08 46° S 22:20:57 10° SE visible
24 Oct 9.8 12:08:24 10° S 12:11:31 12° SSE 12:14:11 10° SE visible
24 Oct 9.3 14:17:40 10° SW 14:21:28 24° SSW 14:21:28 24° SSW visible
24 Oct 9.8 21:04:38 15° ESE 21:04:38 15° ESE 21:05:42 10° ESE visible
24 Oct 8.8 23:09:13 17° WSW 23:11:59 23° SSW 23:18:24 10° SSE visible
25 Oct 8.9 13:02:49 10° SSW 13:10:25 25° SSE 13:11:57 24° SE visible
25 Oct 10.2 15:16:04 10° WSW 15:16:32 12° WSW 15:16:32 12° WSW visible
25 Oct 8.7 21:59:43 28° SSE 21:59:43 28° SSE 22:03:54 10° SE visible
26 Oct 9.7 11:48:38 10° S 11:55:32 18° SSE 12:00:38 10° ESE visible
26 Oct 8.6 14:00:26 10° SW 14:06:59 40° SSW 14:06:59 40° SSW visible
26 Oct 9.0 22:54:49 15° SW 22:56:08 16° SSW 23:00:21 10° S visible
27 Oct 8.7 12:44:54 10° SW 12:54:26 34° SSE 12:57:26 25° ESE visible
27 Oct 9.8 14:59:23 10° WSW 15:02:01 20° WSW 15:02:01 20° WSW visible
27 Oct 9.4 21:45:19 15° SSE 21:45:19 15° SSE 21:46:48 10° SSE visible
28 Oct 7.9 13:43:13 10° SW 13:52:26 61° S 13:52:26 61° S visible
29 Oct 8.8 12:27:04 10° SW 12:38:22 43° SSE 12:42:51 22° E visible
29 Oct 9.2 14:42:38 10° WSW 14:47:25 32° W 14:47:25 32° W visible
